Location: Iesi
(43.5167°N, 13.2333°E)
Time: 01:41:33
(UTC+00:00)

ERBS - Pass Details

Date: 08 August 2020
Orbit: 412 x 421 km, 57.0° (Epoch: 19 September)

Event Time Altitude Azimuth Distance (km) Brightness Sun altitude
Rises 18:56:17 0° 246° (WSW) 2,348 6.6 -6.7°
Reaches altitude 10° 18:58:27 10° 255° (WSW) 1,487 5.7 -7.1°
Maximum altitude 19:01:34 37° 324° (NW) 669 4.0 -7.5°
Drops below altitude 10° 19:04:41 10° 34° (NNE) 1,490 5.0 -8.0°
Sets 19:06:52 0° 43° (NE) 2,355 5.9 -8.4°
